| time (UTC) | temp F | wind direction | speed MPH | gust MPH | rain 1hr in | rain 24hr in | rain mn in | humidity % | barometer mb |
| 20260507093541 | 75 | 190 | 0.0 | 0.0 | 0.00 | 0.00 | 0.00 | 60 | 1010.6 |
| 20260507093058 | 75 | 0 | 0.0 | 0.0 | 0.00 | 0.00 | 0.00 | 59 | 1010.0 |
| 20260507093042 | 75 | 190 | 0.0 | 0.0 | 0.00 | 0.00 | 0.00 | 60 | 1010.5 |
| 20260507092541 | 75 | 190 | 0.0 | 0.0 | 0.00 | 0.00 | 0.00 | 60 | 1010.5 |
| 20260507092042 | 75 | 190 | 0.0 | 0.0 | 0.00 | 0.00 | 0.00 | 60 | 1010.5 |
| 20260507091606 | 76 | 0 | 0.0 | 0.0 | 0.00 | 0.00 | 0.00 | 59 | 1010.1 |
| 20260507091552 | 75 | 190 | 0.0 | 0.0 | 0.00 | 0.00 | 0.00 | 60 | 1010.5 |
| 20260507091040 | 75 | 190 | 0.0 | 0.0 | 0.00 | 0.00 | 0.00 | 60 | 1010.5 |
| 20260507090540 | 75 | 190 | 0.0 | 0.0 | 0.00 | 0.00 | 0.00 | 60 | 1010.6 |
| 20260507090057 | 75 | 0 | 0.0 | 0.0 | 0.00 | 0.00 | 0.00 | 60 | 1010.0 |
| 20260507090045 | 75 | 190 | 0.0 | 0.0 | 0.00 | 0.00 | 0.00 | 60 | 1010.6 |
| 20260507085539 | 75 | 190 | 0.0 | 0.0 | 0.00 | 0.00 | 0.00 | 60 | 1010.6 |
| 20260507085039 | 75 | 190 | 0.0 | 3.0 | 0.00 | 0.00 | 0.00 | 60 | 1010.7 |
| 20260507084558 | 75 | 0 | 0.0 | 3.0 | 0.00 | 0.00 | 0.00 | 59 | 1010.3 |
| 20260507084541 | 75 | 190 | 0.0 | 3.0 | 0.00 | 0.00 | 0.00 | 60 | 1010.7 |
| 20260507084037 | 75 | 190 | 1.0 | 3.0 | 0.00 | 0.00 | 0.00 | 60 | 1010.7 |
| 20260507083537 | 75 | 190 | 0.0 | 4.0 | 0.00 | 0.00 | 0.00 | 59 | 1010.6 |
| 20260507083104 | 75 | 0 | 1.0 | 4.0 | 0.00 | 0.00 | 0.00 | 59 | 1010.2 |
| 20260507083039 | 75 | 190 | 1.0 | 4.0 | 0.00 | 0.00 | 0.00 | 59 | 1010.6 |
| 20260507082536 | 76 | 190 | 0.0 | 3.0 | 0.00 | 0.00 | 0.00 | 59 | 1010.6 |
| 20260507082035 | 76 | 190 | 0.0 | 3.0 | 0.00 | 0.00 | 0.00 | 59 | 1010.7 |
| 20260507081557 | 76 | 190 | 0.0 | 3.0 | 0.00 | 0.00 | 0.00 | 58 | 1010.3 |
| 20260507081534 | 76 | 190 | 0.0 | 3.0 | 0.00 | 0.00 | 0.00 | 58 | 1010.7 |
| 20260507081033 | 76 | 190 | 1.0 | 3.0 | 0.00 | 0.00 | 0.00 | 58 | 1010.7 |
| 20260507080532 | 77 | 190 | 0.0 | 2.0 | 0.00 | 0.00 | 0.00 | 57 | 1010.7 |
| 20260507080134 | 77 | 0 | 0.0 | 4.0 | 0.00 | 0.00 | 0.00 | 57 | 1010.3 |
| 20260507080031 | 76 | 190 | 0.0 | 4.0 | 0.00 | 0.00 | 0.00 | 57 | 1010.7 |
| 20260507075530 | 77 | 190 | 2.0 | 4.0 | 0.00 | 0.00 | 0.00 | 57 | 1010.8 |
| 20260507075029 | 77 | 190 | 0.0 | 5.0 | 0.00 | 0.00 | 0.00 | 56 | 1010.9 |
| 20260507074605 | 78 | 190 | 0.0 | 4.0 | 0.00 | 0.00 | 0.00 | 56 | 1010.6 |
| 20260507074538 | 78 | 190 | 1.0 | 4.0 | 0.00 | 0.00 | 0.00 | 56 | 1010.9 |
| 20260507074026 | 78 | 190 | 0.0 | 0.0 | 0.00 | 0.00 | 0.00 | 56 | 1010.9 |
| 20260507073525 | 78 | 190 | 0.0 | 0.0 | 0.00 | 0.00 | 0.00 | 55 | 1010.9 |
| 20260507073111 | 79 | 0 | 0.0 | 0.0 | 0.00 | 0.00 | 0.00 | 55 | 1010.7 |
| 20260507073025 | 78 | 190 | 0.0 | 0.0 | 0.00 | 0.00 | 0.00 | 55 | 1011.0 |
| 20260507072525 | 78 | 190 | 0.0 | 0.0 | 0.00 | 0.00 | 0.00 | 55 | 1011.0 |
| 20260507072024 | 78 | 190 | 0.0 | 2.0 | 0.00 | 0.00 | 0.00 | 55 | 1011.0 |
| 20260507071606 | 79 | 0 | 0.0 | 2.0 | 0.00 | 0.00 | 0.00 | 54 | 1010.8 |
| 20260507071523 | 79 | 190 | 0.0 | 2.0 | 0.00 | 0.00 | 0.00 | 55 | 1011.2 |
| 20260507071022 | 79 | 190 | 0.0 | 0.0 | 0.00 | 0.00 | 0.00 | 54 | 1011.2 |
| 20260507070522 | 79 | 190 | 0.0 | 2.0 | 0.00 | 0.00 | 0.00 | 54 | 1011.3 |
| 20260507070108 | 79 | 0 | 0.0 | 2.0 | 0.00 | 0.00 | 0.00 | 54 | 1011.0 |
| 20260507070020 | 79 | 190 | 0.0 | 2.0 | 0.00 | 0.00 | 0.00 | 54 | 1011.2 |
| 20260507065524 | 79 | 190 | 0.0 | 2.0 | 0.00 | 0.00 | 0.00 | 54 | 1011.1 |
| 20260507065020 | 79 | 190 | 0.0 | 3.0 | 0.00 | 0.00 | 0.00 | 54 | 1011.1 |
| 20260507064602 | 79 | 190 | 2.0 | 3.0 | 0.00 | 0.00 | 0.00 | 53 | 1010.9 |
| 20260507064520 | 79 | 190 | 1.0 | 3.0 | 0.00 | 0.00 | 0.00 | 53 | 1011.1 |
| 20260507064020 | 80 | 190 | 1.0 | 3.0 | 0.00 | 0.00 | 0.00 | 53 | 1011.2 |
| 20260507063520 | 80 | 190 | 1.0 | 2.0 | 0.00 | 0.00 | 0.00 | 52 | 1011.2 |
| 20260507063101 | 81 | 190 | 0.0 | 2.0 | 0.00 | 0.00 | 0.00 | 52 | 1011.0 |
| 20260507063019 | 81 | 190 | 0.0 | 2.0 | 0.00 | 0.00 | 0.00 | 52 | 1011.2 |
| 20260507062519 | 81 | 190 | 0.0 | 1.0 | 0.00 | 0.00 | 0.00 | 51 | 1011.2 |
| 20260507062019 | 82 | 190 | 0.0 | 0.0 | 0.00 | 0.00 | 0.00 | 52 | 1011.2 |
| 20260507061558 | 82 | 0 | 0.0 | 0.0 | 0.00 | 0.00 | 0.00 | 51 | 1011.0 |
| 20260507061520 | 81 | 190 | 0.0 | 0.0 | 0.00 | 0.00 | 0.00 | 52 | 1011.2 |
| 20260507061020 | 81 | 190 | 0.0 | 3.0 | 0.00 | 0.00 | 0.00 | 52 | 1011.2 |
| 20260507060518 | 81 | 190 | 0.0 | 4.0 | 0.00 | 0.00 | 0.00 | 52 | 1011.2 |
| 20260507060103 | 82 | 190 | 0.0 | 4.0 | 0.00 | 0.00 | 0.00 | 51 | 1010.9 |
| 20260507060018 | 82 | 190 | 1.0 | 4.0 | 0.00 | 0.00 | 0.00 | 52 | 1011.1 |
| 20260507055518 | 82 | 190 | 0.0 | 1.0 | 0.00 | 0.00 | 0.00 | 51 | 1011.1 |
| 20260507055018 | 82 | 190 | 0.0 | 4.0 | 0.00 | 0.00 | 0.00 | 51 | 1011.1 |
| 20260507054607 | 82 | 190 | 1.0 | 4.0 | 0.00 | 0.00 | 0.00 | 50 | 1010.9 |
| 20260507054518 | 82 | 190 | 0.0 | 4.0 | 0.00 | 0.00 | 0.00 | 51 | 1011.1 |
| 20260507054017 | 82 | 190 | 1.0 | 4.0 | 0.00 | 0.00 | 0.00 | 51 | 1011.1 |
| 20260507053518 | 82 | 190 | 1.0 | 4.0 | 0.00 | 0.00 | 0.00 | 50 | 1011.1 |
| 20260507053100 | 83 | 190 | 1.0 | 4.0 | 0.00 | 0.00 | 0.00 | 49 | 1010.9 |
| 20260507053017 | 83 | 190 | 1.0 | 4.0 | 0.00 | 0.00 | 0.00 | 50 | 1011.1 |
| 20260507052516 | 83 | 190 | 1.0 | 5.0 | 0.00 | 0.00 | 0.00 | 50 | 1011.1 |
| 20260507052017 | 83 | 190 | 1.0 | 5.0 | 0.00 | 0.00 | 0.00 | 49 | 1011.0 |
| 20260507051600 | 83 | 0 | 1.0 | 4.0 | 0.00 | 0.00 | 0.00 | 49 | 1010.9 |
| 20260507051524 | 83 | 190 | 1.0 | 4.0 | 0.00 | 0.00 | 0.00 | 49 | 1011.0 |
| 20260507051016 | 83 | 190 | 1.0 | 4.0 | 0.00 | 0.00 | 0.00 | 49 | 1011.0 |
| 20260507050516 | 83 | 190 | 0.0 | 5.0 | 0.00 | 0.00 | 0.00 | 49 | 1010.9 |
| 20260507050057 | 84 | 0 | 1.0 | 5.0 | 0.00 | 0.00 | 0.00 | 48 | 1010.7 |
| 20260507050016 | 84 | 190 | 0.0 | 5.0 | 0.00 | 0.00 | 0.00 | 48 | 1010.9 |
| 20260507045516 | 84 | 190 | 1.0 | 6.0 | 0.00 | 0.00 | 0.00 | 48 | 1010.9 |
| 20260507045016 | 84 | 190 | 1.0 | 6.0 | 0.00 | 0.00 | 0.00 | 47 | 1010.9 |
| 20260507044621 | 85 | 190 | 2.0 | 5.0 | 0.00 | 0.00 | 0.00 | 46 | 1010.7 |
| 20260507044516 | 85 | 190 | 1.0 | 5.0 | 0.00 | 0.00 | 0.00 | 47 | 1010.9 |
| 20260507044017 | 85 | 190 | 0.0 | 5.0 | 0.00 | 0.00 | 0.00 | 47 | 1010.9 |
| 20260507043516 | 85 | 190 | 1.0 | 5.0 | 0.00 | 0.00 | 0.00 | 46 | 1010.7 |
| 20260507043059 | 85 | 0 | 0.0 | 4.0 | 0.00 | 0.00 | 0.00 | 45 | 1010.5 |
| 20260507043015 | 85 | 190 | 0.0 | 4.0 | 0.00 | 0.00 | 0.00 | 46 | 1010.7 |
| 20260507042515 | 85 | 190 | 1.0 | 4.0 | 0.00 | 0.00 | 0.00 | 45 | 1010.6 |
| 20260507042014 | 86 | 190 | 1.0 | 4.0 | 0.00 | 0.00 | 0.00 | 45 | 1010.5 |
| 20260507041607 | 86 | 190 | 0.0 | 4.0 | 0.00 | 0.00 | 0.00 | 44 | 1010.2 |
| 20260507041514 | 86 | 190 | 0.0 | 4.0 | 0.00 | 0.00 | 0.00 | 45 | 1010.4 |
| 20260507041014 | 86 | 190 | 0.0 | 3.0 | 0.00 | 0.00 | 0.00 | 45 | 1010.2 |
| 20260507040515 | 86 | 190 | 1.0 | 3.0 | 0.00 | 0.00 | 0.00 | 44 | 1010.0 |
| 20260507040108 | 87 | 0 | 0.0 | 3.0 | 0.00 | 0.00 | 0.00 | 43 | 1009.9 |
| 20260507040014 | 86 | 190 | 0.0 | 3.0 | 0.00 | 0.00 | 0.00 | 44 | 1009.9 |
| 20260507035514 | 87 | 190 | 0.0 | 5.0 | 0.00 | 0.00 | 0.00 | 44 | 1009.8 |
| 20260507035014 | 87 | 190 | 1.0 | 5.0 | 0.00 | 0.00 | 0.00 | 43 | 1009.7 |
| 20260507034559 | 87 | 190 | 1.0 | 5.0 | 0.00 | 0.00 | 0.00 | 42 | 1009.6 |
| 20260507034520 | 87 | 190 | 1.0 | 5.0 | 0.00 | 0.00 | 0.00 | 43 | 1009.7 |
| 20260507034013 | 87 | 190 | 1.0 | 5.0 | 0.00 | 0.00 | 0.00 | 43 | 1009.5 |
| 20260507033516 | 88 | 190 | 1.0 | 5.0 | 0.00 | 0.00 | 0.00 | 43 | 1009.4 |
| 20260507033059 | 88 | 190 | 2.0 | 5.0 | 0.00 | 0.00 | 0.00 | 42 | 1009.5 |
| 20260507033013 | 88 | 190 | 1.0 | 5.0 | 0.00 | 0.00 | 0.00 | 42 | 1009.3 |
| 20260507032513 | 88 | 190 | 0.0 | 3.0 | 0.00 | 0.00 | 0.00 | 42 | 1009.3 |
| 20260507032012 | 88 | 190 | 0.0 | 5.0 | 0.00 | 0.00 | 0.00 | 42 | 1009.2 |
| 20260507031605 | 88 | 190 | 0.0 | 6.0 | 0.00 | 0.00 | 0.00 | 41 | 1009.2 |
| 20260507031513 | 88 | 190 | 0.0 | 6.0 | 0.00 | 0.00 | 0.00 | 42 | 1009.1 |
| 20260507031012 | 88 | 190 | 2.0 | 5.0 | 0.00 | 0.00 | 0.00 | 42 | 1009.0 |
| 20260507030513 | 88 | 190 | 0.0 | 4.0 | 0.00 | 0.00 | 0.00 | 41 | 1009.0 |
| 20260507030105 | 89 | 190 | 0.0 | 2.0 | 0.00 | 0.00 | 0.00 | 41 | 1009.1 |
| 20260507030017 | 89 | 190 | 0.0 | 2.0 | 0.00 | 0.00 | 0.00 | 41 | 1008.9 |
| 20260507025511 | 89 | 190 | 0.0 | 0.0 | 0.00 | 0.00 | 0.00 | 41 | 1008.9 |
| 20260507025011 | 89 | 190 | 0.0 | 0.0 | 0.00 | 0.00 | 0.00 | 41 | 1009.0 |
| 20260507024556 | 89 | 0 | 0.0 | 4.0 | 0.00 | 0.00 | 0.00 | 40 | 1009.0 |
| 20260507024516 | 89 | 190 | 0.0 | 2.0 | 0.00 | 0.00 | 0.00 | 41 | 1008.8 |
| 20260507024010 | 89 | 190 | 0.0 | 4.0 | 0.00 | 0.00 | 0.00 | 40 | 1008.7 |
| 20260507023513 | 90 | 190 | 0.0 | 4.0 | 0.00 | 0.00 | 0.00 | 40 | 1008.6 |
| 20260507023058 | 90 | 190 | 1.0 | 4.0 | 0.00 | 0.00 | 0.00 | 39 | 1008.5 |
| 20260507023010 | 90 | 190 | 1.0 | 4.0 | 0.00 | 0.00 | 0.00 | 40 | 1008.5 |
| 20260507022510 | 90 | 190 | 0.0 | 0.0 | 0.00 | 0.00 | 0.00 | 40 | 1008.4 |
| 20260507022015 | 90 | 190 | 0.0 | 3.0 | 0.00 | 0.00 | 0.00 | 39 | 1008.2 |
| 20260507021558 | 91 | 0 | 0.0 | 5.0 | 0.00 | 0.00 | 0.00 | 39 | 1008.1 |
| 20260507021510 | 90 | 190 | 0.0 | 5.0 | 0.00 | 0.00 | 0.00 | 39 | 1008.2 |
| 20260507021010 | 91 | 190 | 1.0 | 5.0 | 0.00 | 0.00 | 0.00 | 39 | 1008.0 |
| 20260507020510 | 91 | 190 | 0.0 | 5.0 | 0.00 | 0.00 | 0.00 | 38 | 1007.8 |
| 20260507020103 | 91 | 0 | 1.0 | 8.0 | 0.00 | 0.00 | 0.00 | 38 | 1007.6 |
| 20260507020012 | 91 | 190 | 1.0 | 8.0 | 0.00 | 0.00 | 0.00 | 38 | 1007.6 |
| 20260507015513 | 92 | 190 | 2.0 | 8.0 | 0.00 | 0.00 | 0.00 | 38 | 1007.5 |
| 20260507015009 | 92 | 190 | 2.0 | 6.0 | 0.00 | 0.00 | 0.00 | 37 | 1007.3 |
| 20260507014607 | 92 | 190 | 1.0 | 11.0 | 0.00 | 0.00 | 0.00 | 36 | 1007.3 |
| 20260507014512 | 92 | 190 | 1.0 | 11.0 | 0.00 | 0.00 | 0.00 | 37 | 1007.3 |
| 20260507014008 | 93 | 190 | 4.0 | 11.0 | 0.00 | 0.00 | 0.00 | 36 | 1007.2 |
| 20260507013508 | 93 | 190 | 3.0 | 9.0 | 0.00 | 0.00 | 0.00 | 36 | 1007.1 |
| 20260507013059 | 93 | 190 | 2.0 | 10.0 | 0.00 | 0.00 | 0.00 | 35 | 1007.1 |
| 20260507013008 | 93 | 190 | 1.0 | 10.0 | 0.00 | 0.00 | 0.00 | 35 | 1007.0 |
| 20260507012509 | 94 | 190 | 3.0 | 11.0 | 0.00 | 0.00 | 0.00 | 35 | 1006.9 |
| 20260507012009 | 94 | 190 | 5.0 | 11.0 | 0.00 | 0.00 | 0.00 | 34 | 1006.8 |
| 20260507011604 | 95 | 190 | 4.0 | 12.0 | 0.00 | 0.00 | 0.00 | 33 | 1006.7 |
| 20260507011508 | 95 | 190 | 3.0 | 10.0 | 0.00 | 0.00 | 0.00 | 33 | 1006.7 |
| 20260507011007 | 95 | 190 | 4.0 | 12.0 | 0.00 | 0.00 | 0.00 | 32 | 1006.5 |
| 20260507010506 | 96 | 190 | 4.0 | 12.0 | 0.00 | 0.00 | 0.00 | 32 | 1006.4 |
| 20260507010058 | 97 | 190 | 1.0 | 10.0 | 0.00 | 0.00 | 0.00 | 30 | 1006.3 |
| 20260507010010 | 97 | 190 | 0.0 | 10.0 | 0.00 | 0.00 | 0.00 | 30 | 1006.3 |
| 20260507005507 | 97 | 190 | 3.0 | 10.0 | 0.00 | 0.00 | 0.00 | 29 | 1006.2 |
| 20260507005006 | 99 | 190 | 1.0 | 8.0 | 0.00 | 0.00 | 0.00 | 24 | 1006.1 |
| 20260507004558 | 99 | 190 | 1.0 | 8.0 | 0.00 | 0.00 | 0.00 | 20 | 1005.9 |
| 20260507004504 | 99 | 190 | 1.0 | 8.0 | 0.00 | 0.00 | 0.00 | 21 | 1005.9 |
| 20260507004005 | 99 | 190 | 2.0 | 8.0 | 0.00 | 0.00 | 0.00 | 20 | 1005.6 |
| 20260507003505 | 100 | 190 | 2.0 | 8.0 | 0.00 | 0.00 | 0.00 | 20 | 1005.5 |
| 20260507003100 | 100 | 190 | 3.0 | 11.0 | 0.00 | 0.00 | 0.00 | 20 | 1005.3 |
| 20260507003008 | 100 | 190 | 3.0 | 11.0 | 0.00 | 0.00 | 0.00 | 20 | 1005.3 |
| 20260507002503 | 100 | 190 | 4.0 | 11.0 | 0.00 | 0.00 | 0.00 | 20 | 1005.1 |
| 20260507002007 | 100 | 190 | 2.0 | 10.0 | 0.00 | 0.00 | 0.00 | 20 | 1005.1 |
| 20260507001615 | 101 | 190 | 4.0 | 10.0 | 0.00 | 0.00 | 0.00 | 20 | 1005.0 |
| 20260507001504 | 100 | 190 | 3.0 | 10.0 | 0.00 | 0.00 | 0.00 | 20 | 1005.0 |
| 20260507001004 | 101 | 190 | 3.0 | 10.0 | 0.00 | 0.00 | 0.00 | 20 | 1004.9 |
| 20260507000503 | 101 | 190 | 3.0 | 10.0 | 0.00 | 0.00 | 0.00 | 21 | 1004.8 |
| 20260507000101 | 101 | 190 | 4.0 | 9.0 | 0.00 | 0.00 | 0.00 | 20 | 1004.9 |
| 20260507000003 | 101 | 190 | 3.0 | 9.0 | 0.00 | 0.00 | 0.00 | 20 | 1004.8 |
| 20260506235504 | 101 | 190 | 3.0 | 8.0 | 0.00 | 0.00 | 0.00 | 20 | 1004.8 |
| 20260506235002 | 101 | 190 | 2.0 | 6.0 | 0.00 | 0.00 | 0.00 | 20 | 1004.8 |
| 20260506234603 | 101 | 190 | 1.0 | 7.0 | 0.00 | 0.00 | 0.00 | 20 | 1004.8 |
| 20260506234501 | 101 | 190 | 1.0 | 7.0 | 0.00 | 0.00 | 0.00 | 20 | 1004.8 |
| 20260506234002 | 101 | 190 | 2.0 | 12.0 | 0.00 | 0.00 | 0.00 | 20 | 1004.7 |
| 20260506233501 | 101 | 190 | 3.0 | 12.0 | 0.00 | 0.00 | 0.00 | 20 | 1004.8 |
| 20260506233059 | 102 | 190 | 4.0 | 12.0 | 0.00 | 0.00 | 0.00 | 20 | 1004.8 |
| 20260506233002 | 101 | 190 | 4.0 | 12.0 | 0.00 | 0.00 | 0.00 | 21 | 1004.8 |
| 20260506232503 | 102 | 190 | 3.0 | 8.0 | 0.00 | 0.00 | 0.00 | 20 | 1004.7 |
| 20260506232001 | 102 | 190 | 3.0 | 8.0 | 0.00 | 0.00 | 0.00 | 20 | 1004.7 |
| 20260506231602 | 102 | 190 | 2.0 | 8.0 | 0.00 | 0.00 | 0.00 | 20 | 1004.7 |
| 20260506231558 | 102 | 190 | 3.0 | 10.0 | 0.00 | 0.00 | 0.00 | 20 | 1004.7 |
| 20260506231101 | 102 | 190 | 2.0 | 10.0 | 0.00 | 0.00 | 0.00 | 21 | 1004.8 |
| 20260506230600 | 102 | 190 | 3.0 | 9.0 | 0.00 | 0.00 | 0.00 | 21 | 1004.7 |
| 20260506230100 | 102 | 190 | 2.0 | 9.0 | 0.00 | 0.00 | 0.00 | 21 | 1004.7 |
| 20260506230058 | 102 | 190 | 3.0 | 9.0 | 0.00 | 0.00 | 0.00 | 20 | 1004.8 |
| 20260506225600 | 103 | 190 | 2.0 | 7.0 | 0.00 | 0.00 | 0.00 | 21 | 1004.7 |
| 20260506225100 | 102 | 190 | 1.0 | 7.0 | 0.00 | 0.00 | 0.00 | 21 | 1004.7 |
| 20260506224559 | 102 | 190 | 0.0 | 8.0 | 0.00 | 0.00 | 0.00 | 21 | 1004.7 |
| 20260506224059 | 103 | 190 | 3.0 | 7.0 | 0.00 | 0.00 | 0.00 | 21 | 1004.7 |
| 20260506223557 | 102 | 190 | 1.0 | 8.0 | 0.00 | 0.00 | 0.00 | 22 | 1004.8 |
| 20260506223101 | 102 | 190 | 3.0 | 10.0 | 0.00 | 0.00 | 0.00 | 22 | 1004.8 |
| 20260506223057 | 102 | 190 | 2.0 | 12.0 | 0.00 | 0.00 | 0.00 | 21 | 1004.9 |
| 20260506222556 | 102 | 190 | 2.0 | 12.0 | 0.00 | 0.00 | 0.00 | 21 | 1004.9 |
| 20260506222055 | 102 | 190 | 5.0 | 12.0 | 0.00 | 0.00 | 0.00 | 21 | 1004.9 |
| 20260506221601 | 102 | 190 | 3.0 | 10.0 | 0.00 | 0.00 | 0.00 | 21 | 1005.0 |
| 20260506221555 | 102 | 190 | 2.0 | 10.0 | 0.00 | 0.00 | 0.00 | 22 | 1005.0 |
| 20260506221054 | 102 | 190 | 0.0 | 11.0 | 0.00 | 0.00 | 0.00 | 22 | 1005.1 |
| 20260506220555 | 102 | 190 | 3.0 | 11.0 | 0.00 | 0.00 | 0.00 | 22 | 1005.2 |
| 20260506220108 | 102 | 190 | 3.0 | 7.0 | 0.00 | 0.00 | 0.00 | 21 | 1005.2 |
| 20260506220053 | 101 | 190 | 1.0 | 7.0 | 0.00 | 0.00 | 0.00 | 22 | 1005.2 |
| 20260506215552 | 101 | 190 | 0.0 | 12.0 | 0.00 | 0.00 | 0.00 | 22 | 1005.2 |
| 20260506215053 | 101 | 190 | 3.0 | 15.0 | 0.00 | 0.00 | 0.00 | 23 | 1005.4 |
| 20260506214601 | 102 | 190 | 4.0 | 9.0 | 0.00 | 0.00 | 0.00 | 22 | 1005.3 |
| 20260506214551 | 101 | 190 | 4.0 | 15.0 | 0.00 | 0.00 | 0.00 | 22 | 1005.3 |
| 20260506214049 | 101 | 190 | 1.0 | 8.0 | 0.00 | 0.00 | 0.00 | 23 | 1005.5 |
| 20260506213548 | 101 | 190 | 2.0 | 13.0 | 0.00 | 0.00 | 0.00 | 24 | 1005.7 |
| 20260506213103 | 101 | 190 | 6.0 | 13.0 | 0.00 | 0.00 | 0.00 | 23 | 1005.6 |
| 20260506213049 | 101 | 190 | 4.0 | 13.0 | 0.00 | 0.00 | 0.00 | 24 | 1005.7 |
| 20260506212548 | 101 | 190 | 2.0 | 8.0 | 0.00 | 0.00 | 0.00 | 24 | 1005.6 |
| 20260506212048 | 101 | 190 | 0.0 | 5.0 | 0.00 | 0.00 | 0.00 | 24 | 1005.7 |
| 20260506211600 | 100 | 0 | 1.0 | 11.0 | 0.00 | 0.00 | 0.00 | 24 | 1005.8 |
| 20260506211552 | 100 | 190 | 1.0 | 11.0 | 0.00 | 0.00 | 0.00 | 25 | 1005.9 |
| 20260506211045 | 100 | 190 | 5.0 | 11.0 | 0.00 | 0.00 | 0.00 | 24 | 1006.1 |
| 20260506210545 | 100 | 190 | 2.0 | 13.0 | 0.00 | 0.00 | 0.00 | 25 | 1006.1 |
| 20260506210120 | 101 | 190 | 4.0 | 10.0 | 0.00 | 0.00 | 0.00 | 24 | 1006.1 |
| 20260506210044 | 101 | 190 | 6.0 | 13.0 | 0.00 | 0.00 | 0.00 | 25 | 1006.2 |
| 20260506205543 | 101 | 190 | 2.0 | 6.0 | 0.00 | 0.00 | 0.00 | 24 | 1006.3 |
| 20260506205042 | 100 | 190 | 0.0 | 7.0 | 0.00 | 0.00 | 0.00 | 24 | 1006.3 |
| 20260506204559 | 100 | 190 | 4.0 | 12.0 | 0.00 | 0.00 | 0.00 | 25 | 1006.4 |
| 20260506204541 | 100 | 190 | 4.0 | 12.0 | 0.00 | 0.00 | 0.00 | 25 | 1006.4 |
| 20260506204040 | 100 | 190 | 4.0 | 12.0 | 0.00 | 0.00 | 0.00 | 25 | 1006.5 |
| 20260506203540 | 100 | 190 | 2.0 | 10.0 | 0.00 | 0.00 | 0.00 | 24 | 1006.5 |
| 20260506203143 | 100 | 190 | 2.0 | 8.0 | 0.00 | 0.00 | 0.00 | 24 | 1006.7 |
| 20260506203039 | 100 | 190 | 1.0 | 8.0 | 0.00 | 0.00 | 0.00 | 24 | 1006.6 |
| 20260506202538 | 100 | 190 | 0.0 | 4.0 | 0.00 | 0.00 | 0.00 | 25 | 1006.7 |
| 20260506202037 | 100 | 190 | 1.0 | 4.0 | 0.00 | 0.00 | 0.00 | 25 | 1006.7 |
| 20260506201600 | 99 | 190 | 1.0 | 7.0 | 0.00 | 0.00 | 0.00 | 25 | 1006.9 |
| 20260506201536 | 99 | 190 | 1.0 | 6.0 | 0.00 | 0.00 | 0.00 | 26 | 1006.9 |
| 20260506201034 | 99 | 190 | 1.0 | 7.0 | 0.00 | 0.00 | 0.00 | 26 | 1007.1 |
| 20260506200533 | 99 | 190 | 1.0 | 12.0 | 0.00 | 0.00 | 0.00 | 26 | 1007.2 |
| 20260506200032 | 98 | 190 | 3.0 | 14.0 | 0.00 | 0.00 | 0.00 | 27 | 1007.3 |
| 20260506195531 | 99 | 190 | 3.0 | 10.0 | 0.00 | 0.00 | 0.00 | 26 | 1007.4 |
| 20260506195032 | 98 | 190 | 1.0 | 7.0 | 0.00 | 0.00 | 0.00 | 27 | 1007.5 |
| 20260506194601 | 98 | 0 | 1.0 | 8.0 | 0.00 | 0.00 | 0.00 | 26 | 1007.6 |
| 20260506194534 | 98 | 190 | 1.0 | 8.0 | 0.00 | 0.00 | 0.00 | 27 | 1007.7 |
| 20260506194027 | 97 | 190 | 2.0 | 8.0 | 0.00 | 0.00 | 0.00 | 27 | 1007.8 |
| 20260506193525 | 97 | 190 | 3.0 | 11.0 | 0.00 | 0.00 | 0.00 | 27 | 1008.0 |
| 20260506193100 | 97 | 190 | 5.0 | 11.0 | 0.00 | 0.00 | 0.00 | 28 | 1008.1 |
| 20260506193028 | 97 | 190 | 4.0 | 11.0 | 0.00 | 0.00 | 0.00 | 28 | 1008.2 |
| 20260506192522 | 97 | 190 | 1.0 | 5.0 | 0.00 | 0.00 | 0.00 | 27 | 1008.3 |
| 20260506192021 | 97 | 190 | 0.0 | 7.0 | 0.00 | 0.00 | 0.00 | 30 | 1008.4 |
| 20260506191605 | 96 | 190 | 2.0 | 9.0 | 0.00 | 0.00 | 0.00 | 29 | 1008.5 |
| 20260506191520 | 96 | 190 | 0.0 | 9.0 | 0.00 | 0.00 | 0.00 | 29 | 1008.6 |
| 20260506191018 | 96 | 190 | 5.0 | 9.0 | 0.00 | 0.00 | 0.00 | 30 | 1008.7 |
| 20260506190517 | 96 | 190 | 3.0 | 8.0 | 0.00 | 0.00 | 0.00 | 30 | 1008.8 |
| 20260506190058 | 95 | 0 | 3.0 | 9.0 | 0.00 | 0.00 | 0.00 | 30 | 1008.9 |
| 20260506190017 | 95 | 190 | 2.0 | 9.0 | 0.00 | 0.00 | 0.00 | 30 | 1009.0 |
| 20260506185515 | 95 | 190 | 4.0 | 7.0 | 0.00 | 0.00 | 0.00 | 30 | 1009.1 |
| 20260506185016 | 95 | 190 | 2.0 | 8.0 | 0.00 | 0.00 | 0.00 | 30 | 1009.3 |
| 20260506184603 | 95 | 190 | 3.0 | 9.0 | 0.00 | 0.00 | 0.00 | 31 | 1009.4 |
| 20260506184521 | 95 | 190 | 3.0 | 9.0 | 0.00 | 0.00 | 0.00 | 31 | 1009.4 |
| 20260506184013 | 95 | 190 | 4.0 | 9.0 | 0.00 | 0.00 | 0.00 | 31 | 1009.6 |
| 20260506183511 | 95 | 190 | 4.0 | 10.0 | 0.00 | 0.00 | 0.00 | 32 | 1009.7 |
| 20260506183112 | 94 | 190 | 3.0 | 10.0 | 0.00 | 0.00 | 0.00 | 31 | 1009.6 |
| 20260506183009 | 94 | 190 | 3.0 | 10.0 | 0.00 | 0.00 | 0.00 | 32 | 1009.8 |
| 20260506182508 | 95 | 190 | 1.0 | 4.0 | 0.00 | 0.00 | 0.00 | 32 | 1009.8 |
| 20260506182009 | 94 | 190 | 0.0 | 5.0 | 0.00 | 0.00 | 0.00 | 32 | 1010.0 |
| 20260506181601 | 95 | 190 | 0.0 | 6.0 | 0.00 | 0.00 | 0.00 | 32 | 1010.1 |
| 20260506181507 | 94 | 190 | 0.0 | 6.0 | 0.00 | 0.00 | 0.00 | 32 | 1010.1 |
| 20260506181007 | 94 | 190 | 2.0 | 9.0 | 0.00 | 0.00 | 0.00 | 32 | 1010.2 |
| 20260506180507 | 94 | 190 | 4.0 | 9.0 | 0.00 | 0.00 | 0.00 | 33 | 1010.3 |
| 20260506180058 | 94 | 190 | 1.0 | 6.0 | 0.00 | 0.00 | 0.00 | 32 | 1010.2 |
| 20260506180007 | 94 | 190 | 1.0 | 5.0 | 0.00 | 0.00 | 0.00 | 33 | 1010.3 |
| 20260506175504 | 94 | 190 | 0.0 | 6.0 | 0.00 | 0.00 | 0.00 | 34 | 1010.4 |
| 20260506175004 | 94 | 190 | 1.0 | 7.0 | 0.00 | 0.00 | 0.00 | 33 | 1010.5 |
| 20260506174609 | 94 | 190 | 2.0 | 7.0 | 0.00 | 0.00 | 0.00 | 33 | 1010.4 |
| 20260506174002 | 93 | 190 | 1.0 | 4.0 | 0.00 | 0.00 | 0.00 | 34 | 1010.7 |
| 20260506173601 | 92 | 190 | 0.0 | 5.0 | 0.00 | 0.00 | 0.00 | 35 | 1010.8 |
| 20260506173128 | 92 | 190 | 0.0 | 6.0 | 0.00 | 0.00 | 0.00 | 35 | 1010.9 |
| 20260506173059 | 92 | 0 | 1.0 | 6.0 | 0.00 | 0.00 | 0.00 | 35 | 1010.7 |
| 20260506172558 | 92 | 190 | 0.0 | 7.0 | 0.00 | 0.00 | 0.00 | 35 | 1010.9 |
| 20260506172057 | 91 | 190 | 1.0 | 7.0 | 0.00 | 0.00 | 0.00 | 36 | 1011.0 |
| 20260506171611 | 91 | 190 | 2.0 | 7.0 | 0.00 | 0.00 | 0.00 | 36 | 1010.9 |
| 20260506171559 | 91 | 190 | 1.0 | 7.0 | 0.00 | 0.00 | 0.00 | 36 | 1011.2 |
| 20260506171056 | 91 | 190 | 3.0 | 7.0 | 0.00 | 0.00 | 0.00 | 37 | 1011.2 |
| 20260506170556 | 91 | 190 | 3.0 | 6.0 | 0.00 | 0.00 | 0.00 | 37 | 1011.4 |
| 20260506170103 | 91 | 190 | 1.0 | 7.0 | 0.00 | 0.00 | 0.00 | 37 | 1011.1 |
| 20260506170055 | 91 | 190 | 1.0 | 7.0 | 0.00 | 0.00 | 0.00 | 37 | 1011.4 |
| 20260506165554 | 90 | 190 | 1.0 | 7.0 | 0.00 | 0.00 | 0.00 | 39 | 1011.5 |
| 20260506165055 | 90 | 190 | 2.0 | 5.0 | 0.00 | 0.00 | 0.00 | 38 | 1011.6 |
| 20260506164600 | 90 | 190 | 2.0 | 5.0 | 0.00 | 0.00 | 0.00 | 38 | 1011.3 |
| 20260506164553 | 90 | 190 | 2.0 | 5.0 | 0.00 | 0.00 | 0.00 | 39 | 1011.7 |
| 20260506164051 | 90 | 190 | 0.0 | 5.0 | 0.00 | 0.00 | 0.00 | 39 | 1011.8 |
| 20260506163550 | 89 | 190 | 1.0 | 5.0 | 0.00 | 0.00 | 0.00 | 40 | 1011.8 |
| 20260506163133 | 89 | 190 | 2.0 | 6.0 | 0.00 | 0.00 | 0.00 | 40 | 1011.6 |
| 20260506163054 | 88 | 190 | 2.0 | 5.0 | 0.00 | 0.00 | 0.00 | 40 | 1011.9 |
| 20260506162547 | 88 | 190 | 1.0 | 6.0 | 0.00 | 0.00 | 0.00 | 40 | 1012.0 |
| 20260506162047 | 88 | 190 | 3.0 | 6.0 | 0.00 | 0.00 | 0.00 | 41 | 1012.0 |
| 20260506161559 | 88 | 190 | 0.0 | 6.0 | 0.00 | 0.00 | 0.00 | 41 | 1011.7 |
| 20260506161548 | 88 | 190 | 1.0 | 6.0 | 0.00 | 0.00 | 0.00 | 41 | 1012.0 |
| 20260506161048 | 87 | 190 | 2.0 | 6.0 | 0.00 | 0.00 | 0.00 | 42 | 1012.1 |
| 20260506160544 | 87 | 190 | 1.0 | 6.0 | 0.00 | 0.00 | 0.00 | 43 | 1012.1 |
| 20260506160106 | 87 | 190 | 3.0 | 6.0 | 0.00 | 0.00 | 0.00 | 43 | 1011.9 |
| 20260506160043 | 87 | 190 | 3.0 | 6.0 | 0.00 | 0.00 | 0.00 | 43 | 1012.1 |
| 20260506155543 | 86 | 190 | 0.0 | 2.0 | 0.00 | 0.00 | 0.00 | 45 | 1012.1 |
| 20260506155041 | 86 | 190 | 0.0 | 4.0 | 0.00 | 0.00 | 0.00 | 47 | 1012.1 |
| 20260506154557 | 86 | 190 | 2.0 | 4.0 | 0.00 | 0.00 | 0.00 | 46 | 1011.9 |
| 20260506154541 | 85 | 190 | 1.0 | 4.0 | 0.00 | 0.00 | 0.00 | 47 | 1012.2 |
| 20260506154039 | 85 | 190 | 0.0 | 5.0 | 0.00 | 0.00 | 0.00 | 48 | 1012.2 |
| 20260506153539 | 85 | 190 | 0.0 | 5.0 | 0.00 | 0.00 | 0.00 | 49 | 1012.2 |
| 20260506153129 | 85 | 0 | 0.0 | 2.0 | 0.00 | 0.00 | 0.00 | 49 | 1011.9 |
| 20260506153042 | 85 | 190 | 0.0 | 2.0 | 0.00 | 0.00 | 0.00 | 49 | 1012.3 |
| 20260506152536 | 85 | 190 | 0.0 | 1.0 | 0.00 | 0.00 | 0.00 | 49 | 1012.3 |
| 20260506152038 | 85 | 190 | 0.0 | 2.0 | 0.00 | 0.00 | 0.00 | 50 | 1012.2 |
| 20260506151600 | 84 | 0 | 1.0 | 4.0 | 0.00 | 0.00 | 0.00 | 50 | 1011.9 |
| 20260506151534 | 84 | 190 | 0.0 | 4.0 | 0.00 | 0.00 | 0.00 | 51 | 1012.3 |
| 20260506151035 | 84 | 190 | 0.0 | 3.0 | 0.00 | 0.00 | 0.00 | 51 | 1012.4 |
| 20260506150531 | 83 | 190 | 0.0 | 3.0 | 0.00 | 0.00 | 0.00 | 52 | 1012.4 |
| 20260506150030 | 83 | 190 | 0.0 | 3.0 | 0.00 | 0.00 | 0.00 | 53 | 1012.4 |
| 20260506145531 | 82 | 190 | 0.0 | 3.0 | 0.00 | 0.00 | 0.00 | 53 | 1012.3 |
| 20260506145027 | 82 | 190 | 0.0 | 4.0 | 0.00 | 0.00 | 0.00 | 54 | 1012.4 |
| 20260506144558 | 82 | 190 | 0.0 | 3.0 | 0.00 | 0.00 | 0.00 | 54 | 1012.0 |
| 20260506144541 | 82 | 190 | 0.0 | 3.0 | 0.00 | 0.00 | 0.00 | 55 | 1012.4 |
| 20260506144025 | 81 | 190 | 0.0 | 3.0 | 0.00 | 0.00 | 0.00 | 55 | 1012.4 |
| 20260506143526 | 81 | 190 | 0.0 | 0.0 | 0.00 | 0.00 | 0.00 | 56 | 1012.5 |
| 20260506143059 | 80 | 0 | 0.0 | 0.0 | 0.00 | 0.00 | 0.00 | 56 | 1012.0 |
| 20260506143026 | 80 | 190 | 0.0 | 0.0 | 0.00 | 0.00 | 0.00 | 57 | 1012.5 |
| 20260506142525 | 79 | 190 | 0.0 | 0.0 | 0.00 | 0.00 | 0.00 | 58 | 1012.5 |
| 20260506142026 | 79 | 190 | 0.0 | 0.0 | 0.00 | 0.00 | 0.00 | 58 | 1012.4 |
| 20260506141600 | 78 | 0 | 0.0 | 0.0 | 0.00 | 0.00 | 0.00 | 59 | 1011.9 |
| 20260506141525 | 78 | 190 | 0.0 | 0.0 | 0.00 | 0.00 | 0.00 | 60 | 1012.4 |
| 20260506141026 | 77 | 190 | 0.0 | 0.0 | 0.00 | 0.00 | 0.00 | 61 | 1012.4 |
| 20260506140526 | 77 | 190 | 0.0 | 0.0 | 0.00 | 0.00 | 0.00 | 61 | 1012.4 |
| 20260506140057 | 77 | 0 | 0.0 | 0.0 | 0.00 | 0.00 | 0.00 | 61 | 1011.9 |
| 20260506140040 | 77 | 190 | 0.0 | 0.0 | 0.00 | 0.00 | 0.00 | 62 | 1012.4 |
| 20260506135524 | 76 | 190 | 0.0 | 0.0 | 0.00 | 0.00 | 0.00 | 62 | 1012.4 |
| 20260506135024 | 76 | 190 | 0.0 | 0.0 | 0.00 | 0.00 | 0.00 | 63 | 1012.5 |
| 20260506134556 | 75 | 0 | 0.0 | 0.0 | 0.00 | 0.00 | 0.00 | 63 | 1011.9 |
| 20260506134530 | 75 | 190 | 0.0 | 0.0 | 0.00 | 0.00 | 0.00 | 64 | 1012.5 |
| 20260506134025 | 74 | 190 | 0.0 | 0.0 | 0.00 | 0.00 | 0.00 | 65 | 1012.4 |
| 20260506133523 | 74 | 190 | 0.0 | 0.0 | 0.00 | 0.00 | 0.00 | 66 | 1012.4 |
| 20260506133057 | 73 | 0 | 0.0 | 0.0 | 0.00 | 0.00 | 0.00 | 66 | 1011.7 |
| 20260506133022 | 73 | 190 | 0.0 | 0.0 | 0.00 | 0.00 | 0.00 | 66 | 1012.3 |
| 20260506132521 | 73 | 190 | 0.0 | 0.0 | 0.00 | 0.00 | 0.00 | 67 | 1012.3 |
| 20260506132021 | 72 | 190 | 0.0 | 0.0 | 0.00 | 0.00 | 0.00 | 67 | 1012.1 |
| 20260506131608 | 72 | 0 | 0.0 | 0.0 | 0.00 | 0.00 | 0.00 | 67 | 1011.4 |
| 20260506131527 | 72 | 190 | 0.0 | 0.0 | 0.00 | 0.00 | 0.00 | 68 | 1012.1 |
| 20260506131019 | 72 | 190 | 0.0 | 0.0 | 0.00 | 0.00 | 0.00 | 68 | 1012.0 |
| 20260506130518 | 72 | 190 | 0.0 | 0.0 | 0.00 | 0.00 | 0.00 | 68 | 1011.9 |
| 20260506130059 | 72 | 0 | 0.0 | 0.0 | 0.00 | 0.00 | 0.00 | 68 | 1011.3 |
| 20260506130018 | 72 | 190 | 0.0 | 0.0 | 0.00 | 0.00 | 0.00 | 68 | 1011.8 |
| 20260506125517 | 71 | 190 | 0.0 | 0.0 | 0.00 | 0.00 | 0.00 | 68 | 1011.7 |
| 20260506125017 | 71 | 190 | 0.0 | 0.0 | 0.00 | 0.00 | 0.00 | 68 | 1011.8 |
| 20260506124608 | 71 | 0 | 0.0 | 0.0 | 0.00 | 0.00 | 0.00 | 68 | 1011.2 |
| 20260506124516 | 71 | 190 | 0.0 | 0.0 | 0.00 | 0.00 | 0.00 | 68 | 1011.7 |
| 20260506124015 | 71 | 190 | 0.0 | 0.0 | 0.00 | 0.00 | 0.00 | 68 | 1011.7 |
| 20260506123515 | 71 | 190 | 0.0 | 0.0 | 0.00 | 0.00 | 0.00 | 68 | 1011.5 |
| 20260506123112 | 71 | 0 | 0.0 | 0.0 | 0.00 | 0.00 | 0.00 | 68 | 1011.1 |
| 20260506123019 | 71 | 190 | 0.0 | 0.0 | 0.00 | 0.00 | 0.00 | 68 | 1011.5 |
| 20260506122514 | 71 | 190 | 0.0 | 0.0 | 0.00 | 0.00 | 0.00 | 68 | 1011.6 |
| 20260506122012 | 71 | 190 | 0.0 | 2.0 | 0.00 | 0.00 | 0.00 | 68 | 1011.5 |
| 20260506121613 | 71 | 0 | 0.0 | 3.0 | 0.00 | 0.00 | 0.00 | 67 | 1011.1 |
| 20260506121512 | 71 | 190 | 0.0 | 3.0 | 0.00 | 0.00 | 0.00 | 68 | 1011.5 |
| 20260506121013 | 71 | 190 | 1.0 | 3.0 | 0.00 | 0.00 | 0.00 | 68 | 1011.6 |
| 20260506120511 | 72 | 190 | 0.0 | 2.0 | 0.00 | 0.00 | 0.00 | 68 | 1011.5 |
| 20260506120058 | 72 | 0 | 0.0 | 1.0 | 0.00 | 0.00 | 0.00 | 67 | 1011.0 |
| 20260506120020 | 72 | 190 | 0.0 | 1.0 | 0.00 | 0.00 | 0.00 | 67 | 1011.5 |
| 20260506115514 | 72 | 190 | 0.0 | 1.0 | 0.00 | 0.00 | 0.00 | 67 | 1011.4 |
| 20260506115008 | 72 | 190 | 0.0 | 0.0 | 0.00 | 0.00 | 0.00 | 67 | 1011.3 |
| 20260506114600 | 72 | 0 | 0.0 | 0.0 | 0.00 | 0.00 | 0.00 | 66 | 1010.7 |
| 20260506114517 | 72 | 190 | 0.0 | 0.0 | 0.00 | 0.00 | 0.00 | 67 | 1011.3 |
| 20260506114009 | 72 | 190 | 0.0 | 0.0 | 0.00 | 0.00 | 0.00 | 66 | 1011.2 |
| 20260506113505 | 73 | 190 | 0.0 | 0.0 | 0.00 | 0.00 | 0.00 | 66 | 1011.0 |
| 20260506113100 | 73 | 0 | 0.0 | 0.0 | 0.00 | 0.00 | 0.00 | 66 | 1010.7 |
| 20260506113005 | 73 | 190 | 0.0 | 0.0 | 0.00 | 0.00 | 0.00 | 67 | 1011.0 |
| 20260506112503 | 73 | 190 | 0.0 | 0.0 | 0.00 | 0.00 | 0.00 | 66 | 1011.0 |
| 20260506112002 | 73 | 190 | 0.0 | 0.0 | 0.00 | 0.00 | 0.00 | 66 | 1011.0 |
| 20260506111602 | 73 | 0 | 0.0 | 0.0 | 0.00 | 0.00 | 0.00 | 65 | 1010.4 |
| 20260506111502 | 73 | 190 | 0.0 | 0.0 | 0.00 | 0.00 | 0.00 | 66 | 1010.9 |
| 20260506111002 | 73 | 190 | 0.0 | 0.0 | 0.00 | 0.00 | 0.00 | 65 | 1010.8 |
| 20260506110601 | 73 | 190 | 0.0 | 0.0 | 0.00 | 0.00 | 0.00 | 65 | 1010.7 |
| 20260506110104 | 73 | 0 | 0.0 | 2.0 | 0.00 | 0.00 | 0.00 | 65 | 1010.3 |
| 20260506105600 | 73 | 190 | 0.0 | 2.0 | 0.00 | 0.00 | 0.00 | 65 | 1010.6 |
| 20260506105059 | 73 | 190 | 0.0 | 2.0 | 0.00 | 0.00 | 0.00 | 65 | 1010.6 |
| 20260506104609 | 73 | 0 | 0.0 | 2.0 | 0.00 | 0.00 | 0.00 | 64 | 1010.1 |
| 20260506104605 | 73 | 190 | 0.0 | 0.0 | 0.00 | 0.00 | 0.00 | 65 | 1010.5 |
| 20260506104056 | 73 | 190 | 0.0 | 2.0 | 0.00 | 0.00 | 0.00 | 64 | 1010.5 |
| 20260506103554 | 74 | 190 | 0.0 | 2.0 | 0.00 | 0.00 | 0.00 | 63 | 1010.4 |
| 20260506103106 | 74 | 0 | 0.0 | 0.0 | 0.00 | 0.00 | 0.00 | 62 | 1009.9 |
| 20260506103100 | 74 | 190 | 0.0 | 0.0 | 0.00 | 0.00 | 0.00 | 62 | 1010.4 |
| 20260506102553 | 75 | 190 | 0.0 | 0.0 | 0.00 | 0.00 | 0.00 | 62 | 1010.3 |
| 20260506102056 | 75 | 190 | 0.0 | 0.0 | 0.00 | 0.00 | 0.00 | 62 | 1010.3 |
| 20260506101637 | 75 | 0 | 0.0 | 0.0 | 0.00 | 0.00 | 0.00 | 63 | 1009.8 |
| 20260506101553 | 74 | 190 | 0.0 | 0.0 | 0.00 | 0.00 | 0.00 | 63 | 1010.2 |
| 20260506101052 | 74 | 190 | 0.0 | 0.0 | 0.00 | 0.00 | 0.00 | 63 | 1010.3 |
| 20260506100552 | 74 | 190 | 0.0 | 0.0 | 0.00 | 0.00 | 0.00 | 63 | 1010.3 |
| 20260506100106 | 74 | 190 | 0.0 | 0.0 | 0.00 | 0.00 | 0.00 | 62 | 1010.3 |
| 20260506100059 | 74 | 0 | 0.0 | 0.0 | 0.00 | 0.00 | 0.00 | 62 | 1009.8 |
| 20260506095551 | 74 | 190 | 0.0 | 0.0 | 0.00 | 0.00 | 0.00 | 62 | 1010.2 |
| 20260506095050 | 74 | 190 | 0.0 | 2.0 | 0.00 | 0.00 | 0.00 | 62 | 1010.1 |
| 20260506094603 | 75 | 0 | 1.0 | 3.0 | 0.00 | 0.00 | 0.00 | 61 | 1009.7 |
| 20260506094555 | 74 | 190 | 0.0 | 3.0 | 0.00 | 0.00 | 0.00 | 61 | 1010.2 |
| 20260506094046 | 75 | 190 | 0.0 | 2.0 | 0.00 | 0.00 | 0.00 | 61 | 1010.1 |